Location: Robert Ferguson Observatory
(38.4385°N, 122.5078°W)
Time: 10:19:43
(UTC-07:00)

Daily predictions for brighter satellites

Satellite Brightness Start Highest point End
(mag) Time Altitude Azimuth Time Altitude Azimuth Time Altitude Azimuth
Spot 2 Rocket 4.0 21:00:17 10° S 21:05:16 63° WSW 21:10:18 10° NNW
Cosmos 676 Rocket 4.1 21:00:15 10° SSW 21:05:29 90° E 21:10:43 10° NNE
Cosmos 1707 4.2 21:03:01 10° SSW 21:06:44 42° W 21:10:29 10° N
Aureole 2 Rocket 2.9 21:07:03 10° NNW 21:11:09 80° WSW 21:14:58 10° SSE
SAR-Lupe-4 4.2 21:08:06 10° SE 21:11:27 38° ENE 21:14:48 10° N
NOSS 3-4 (A) 4.0 21:06:12 10° NNW 21:13:16 68° NE 21:20:47 10° SE
NOSS 3-4 (C) 4.0 21:06:18 10° NNW 21:13:22 68° NE 21:20:52 10° SE
Cosmos 2219 Rocket 3.3 21:14:09 10° NW 21:19:29 43° WSW 21:24:46 10° S
Meteor 1-29 3.0 21:16:19 10° NNE 21:19:42 55° E 21:23:04 10° S
Meteor 2-1 Rocket 4.4 21:14:21 10° N 21:20:09 61° ENE 21:25:46 10° SSE
Okean 3 Rocket 4.3 21:16:05 10° SSE 21:20:12 36° E 21:24:17 10° NNE
Cosmos 2221 3.4 21:17:37 10° NNE 21:21:37 33° ENE 21:25:34 10° SE
USA 186 3.3 21:19:52 10° SSW 21:21:52 23° W 21:23:49 10° NW
Cosmos 2333 Rocket 3.0 21:16:36 10° NNW 21:22:04 51° WSW 21:27:29 10° S
Envisat 3.4 21:24:44 10° S 21:29:46 64° W 21:34:49 10° NNW
SAR-Lupe-1 4.2 21:27:22 10° SSE 21:30:52 59° ENE 21:34:26 10° N
SL-8 R/B 4.3 21:26:58 10° WNW 21:31:34 48° SW 21:35:46 12° SSE
BREEZE-M DEB (TANK) 4.1 21:32:45 10° WNW 21:34:17 18° NNW 21:36:24 10° NE
Cosmos 1242 Rocket 3.9 21:31:08 10° NNE 21:34:19 26° ENE 21:36:40 14° SE
Cosmos 1140 Rocket 4.0 21:35:59 10° SSW 21:41:06 64° WNW 21:46:14 10° NNE
USA 32 4.1 21:37:09 10° S 21:42:23 88° W 21:47:41 10° N
Resurs 01 Rocket 4.1 21:40:34 10° SW 21:43:42 19° W 21:46:51 10° NW
Cosmos 1939 Rocket 3.7 21:40:28 10° S 21:44:18 48° W 21:48:14 10° NNW
Cosmos 1570 Rocket 4.3 21:39:54 10° N 21:45:06 53° ENE 21:49:10 16° SE
Meteor 1-21 Rocket 4.4 21:41:12 10° SSE 21:46:42 51° E 21:52:07 10° NNE
Cosmos 2297 Rocket 3.5 21:46:19 10° SW 21:51:41 44° WNW 21:57:05 10° N
Cosmos 1340 Rocket 3.6 21:51:01 10° SSW 21:54:55 53° W 21:58:55 10° N
Cosmos 1867 3.5 21:51:39 10° SSW 21:57:04 74° ESE 22:02:31 10° NE
Cosmos 1300 4.4 21:56:12 10° NNE 21:58:54 18° ENE 22:00:02 16° E
CZ-4B DEB 4.4 21:59:21 10° SSW 22:01:59 29° W 22:04:37 10° NW
MetOp-B 4.1 21:58:34 17° SSE 22:02:48 73° ENE 22:08:09 10° N
YAOGAN 6 3.8 22:00:08 10° S 22:03:32 40° W 22:07:00 10° NNW
Cosmos 2263 Rocket 3.7 22:03:21 16° ESE 22:03:56 16° E 22:07:09 10° ENE
Cosmos 1726 3.2 22:03:47 10° NNE 22:07:00 28° ENE 22:08:04 24° ESE
Cosmos 2084 3.5 22:03:58 10° SW 22:07:59 68° NW 22:11:50 10° NNE
Cosmos 1459 Rocket 4.0 22:02:56 10° N 22:09:15 78° E 22:14:09 17° SSE
Cosmos 2100 Rocket 4.0 22:03:16 10° N 22:09:36 85° E 22:14:53 16° S
SPOT 5 3.0 22:07:35 22° SSE 22:10:34 61° ENE 22:15:32 10° N
Cosmos 2061 Rocket 4.1 22:04:27 10° N 22:10:51 73° E 22:15:41 19° SSE
ATLAS 5 CENTAUR R/B 2.6 22:07:21 10° SW 22:11:53 54° NW 22:16:49 10° NNE
Cosmos 1000 Rocket 4.5 22:07:31 10° S 22:13:51 86° E 22:20:10 10° N
Lacrosse 5 3.1 22:09:18 10° NNW 22:13:52 33° NE 22:17:19 15° E
Cosmos 2123 Rocket 4.2 22:15:14 20° SSE 22:19:17 52° E 22:25:15 10° NNE
Cosmos 468 Rocket 4.4 22:14:29 10° N 22:19:26 46° ENE 22:21:53 27° SE
Cosmos 371 Rocket 4.4 22:16:50 10° N 22:21:06 30° ENE 22:23:03 23° ESE
Cosmos 2237 Rocket 4.1 22:17:15 10° NW 22:21:32 23° W 22:25:49 10° SSW
Cosmos 2173 Rocket 4.0 22:16:24 10° N 22:22:35 84° W 22:27:23 18° S
H-2A R/B 2.3 22:22:02 27° SE 22:24:55 60° ENE 22:30:14 10° N
ERS-1 Rocket 3.7 22:21:42 14° S 22:25:51 49° W 22:30:46 10° NNW
Cosmos 1674 3.7 22:22:30 10° SSW 22:26:08 45° W 22:29:46 10° N
Cosmos 1908 3.9 22:24:24 10° NNW 22:28:10 50° W 22:30:27 21° SSW
Cosmos 1603 4.0 22:22:55 10° NNW 22:28:29 54° ENE 22:31:12 29° SE
Nimbus 7 Rocket 4.4 22:23:22 10° NNE 22:29:24 72° ESE 22:34:04 17° S
Atlas Centaur 2 3.0 22:30:28 10° SW 22:31:56 16° SSW 22:31:56 16° SSW
USA 234 3.4 22:26:23 10° NE 22:32:56 78° NW 22:39:27 10° SW
Cosmos 1818 3.9 22:29:25 10° NW 22:34:45 59° WSW 22:37:34 27° S
Cosmos 220 Rocket 4.2 22:34:08 36° SSE 22:35:31 52° ESE 22:39:49 10° NNE
KORONAS-FOTON 4.5 22:34:23 18° SSW 22:37:04 52° W 22:40:47 10° N
Tiangong 1 2.5 22:35:08 10° WNW 22:37:41 31° N 22:39:04 20° NE
Milstar 3 Cent rocket 4.4 22:32:33 10° WSW 22:40:10 38° S 22:47:28 24° SE
Landsat 7 4.0 22:38:42 36° SE 22:40:25 58° ENE 22:45:06 10° N
Cosmos 1408 Rocket 4.0 22:37:42 18° SSW 22:40:44 59° W 22:45:01 10° N
Cosmos 1802 Rocket 4.2 22:35:33 10° NNW 22:41:38 69° W 22:45:50 21° S
Cosmos 1725 Rocket 4.0 22:37:58 10° N 22:44:14 73° E 22:47:15 32° SSE
SL-16 R/B 3.4 22:40:13 10° NW 22:45:20 36° WSW 22:48:56 18° SSW
Cosmos 1943 4.0 22:40:19 10° N 22:45:34 38° ENE 22:47:48 27° ESE
ARGOS 3.7 22:43:20 22° S 22:46:42 55° W 22:52:01 10° NNW
Sakura Rocket 4.4 22:41:52 10° WSW 22:48:20 34° S 22:49:07 33° SSE
Cosmos 1356 4.4 22:51:47 34° ENE 22:51:47 34° ENE 22:54:25 10° NNE
Cosmos 1703 4.4 22:51:37 29° E 22:51:37 29° E 22:54:43 10° NNE
Cosmos 2058 3.5 22:51:16 39° E 22:51:21 39° E 22:55:17 10° NNE
CZ-4B R/B 4.5 22:48:12 10° NE 22:52:48 30° E 22:53:06 30° ESE
Terra 2.0 22:54:08 43° SE 22:55:22 57° ENE 23:00:02 10° N
DMSP B5D2-2 4.0 22:54:13 10° NNE 22:59:29 90° E 23:01:57 33° SSW
Cosmos 1500 Rocket 3.5 22:59:25 54° SSE 23:00:22 75° E 23:04:50 10° N
ERBS 3.8 22:57:55 10° NNW 23:00:56 28° NE 23:01:14 28° NE
Cosmos 1354 Rocket 4.4 23:06:54 41° ESE 23:07:11 42° ESE 23:12:06 10° NNE
Meteor 1-11 4.2 23:05:08 39° S 23:07:25 78° E 23:13:14 10° NNE
Cosmos 2151 2.8 23:07:09 66° SSE 23:07:36 75° E 23:11:55 10° N
CARTOSAT-1 3.4 23:09:48 66° SSE 23:10:23 85° ENE 23:14:43 10° N
Cosmos 332 Rocket 3.9 23:05:53 10° NNW 23:10:45 69° WSW 23:11:57 49° SSW
RESURS DK-1 2.4 23:06:38 10° NNW 23:10:46 66° WSW 23:11:11 61° SSW
Cosmos 1814 Rocket 4.1 23:11:57 10° NNW 23:17:18 73° WSW 23:18:38 50° S
Spot 4 4.2 23:18:33 47° E 23:19:13 51° ENE 23:23:56 10° N
CZ-2C R/B 4.4 23:15:56 10° NE 23:18:36 17° E 23:18:36 17° E
Cosmos 1486 Rocket 4.1 23:17:36 32° SSW 23:20:01 73° WNW 23:25:20 10° NNE
Meteor 1-27 4.2 23:17:46 10° N 23:23:37 88° E 23:25:09 52° S
Cosmos 304 Rocket 4.4 23:22:28 10° N 23:27:00 41° ENE 23:27:27 40° E
Cosmos 2228 Rocket 4.1 23:24:05 10° NNW 23:28:24 41° W 23:29:28 35° SW
Cosmos 1515 Rocket 4.1 23:25:36 10° NNW 23:29:47 49° W 23:30:20 46° WSW
Cosmos 841 Rocket 3.3 23:25:20 10° NNW 23:30:37 90° ENE 23:31:24 65° SSE
H-2A R/B 2.0 23:31:35 72° SW 23:31:46 73° WSW 23:36:03 10° NNW
SME Rocket 3.6 23:32:35 43° ENE 23:32:35 43° ENE 23:36:27 10° N
Cosmos 1763 Rocket 3.5 23:28:52 10° NNW 23:33:55 65° WSW 23:34:39 57° SSW
Cosmos 1626 2.6 23:34:58 60° NW 23:34:58 60° NW 23:38:14 10° N
Cosmos 1300 4.4 23:31:25 10° NW 23:34:34 25° W 23:35:03 24° WSW
Cosmos 1151 Rocket 3.5 23:34:00 10° NNW 23:38:16 53° W 23:38:34 51° WSW
Cosmos 2233 Rocket 4.1 23:32:27 10° NNW 23:38:37 68° W 23:40:31 45° SSW
IGS 5A 4.5 23:46:56 36° W 23:46:58 36° W 23:50:50 10° NNW
Cosmos 2263 Rocket 2.5 23:44:59 35° SW 23:47:13 63° WNW 23:52:47 10° NNE
Abrixas rocket 4.3 23:51:11 10° NW 23:52:48 26° NW 23:52:48 26° NW
